iso_date,Year,Hour,Min,DOY,POS_DOY,Lat,Lon,BP,Ts,Ta,has_bp,has_ts,has_ta,BuoyID,Buoy_Type,Buoy_Owner,Logistics,Hemisphere
2021-11-23T16:00:02Z,2021,16,0,327.6667,327.6667,64.793,-60.686,1002.4,-0.73,-999.0,yes,yes,no,300234068346610,BD2GHI,AOML,UNKNOWN,North
2021-11-23T16:59:57Z,2021,17,0,327.7083,327.7083,64.813,-60.669,999.3,-0.73,-999.0,yes,yes,no,300234068346610,BD2GHI,AOML,UNKNOWN,North
2021-11-23T18:00:00Z,2021,18,0,327.75,327.75,64.827,-60.65,996.4,-0.73,-999.0,yes,yes,no,300234068346610,BD2GHI,AOML,UNKNOWN,North
2021-11-23T19:02:03Z,2021,19,2,327.7931,327.7931,64.835,-60.631,993.9,-0.73,-999.0,yes,yes,no,300234068346610,BD2GHI,AOML,UNKNOWN,North
2021-11-23T19:59:57Z,2021,20,0,327.8333,327.8333,64.836,-60.621,991.6,-0.72,-999.0,yes,yes,no,300234068346610,BD2GHI,AOML,UNKNOWN,North
2021-11-23T21:00:00Z,2021,21,0,327.875,327.875,64.836,-60.619,990.2,-0.71,-999.0,yes,yes,no,300234068346610,BD2GHI,AOML,UNKNOWN,North
2021-11-23T22:00:02Z,2021,22,0,327.9167,327.9167,64.834,-60.621,990.3,-0.69,-999.0,yes,yes,no,300234068346610,BD2GHI,AOML,UNKNOWN,North
2021-11-23T22:59:57Z,2021,23,0,327.9583,327.9583,64.832,-60.623,992.5,-0.69,-999.0,yes,yes,no,300234068346610,BD2GHI,AOML,UNKNOWN,North
2021-11-24T00:00:00Z,2021,0,0,328.0,328.0,64.83,-60.622,993.3,-0.69,-999.0,yes,yes,no,300234068346610,BD2GHI,AOML,UNKNOWN,North
2021-11-24T01:00:02Z,2021,1,0,328.0417,328.0417,64.832,-60.621,993.5,-0.69,-999.0,yes,yes,no,300234068346610,BD2GHI,AOML,UNKNOWN,North
2021-11-24T01:59:57Z,2021,2,0,328.0833,328.0833,64.837,-60.618,994.4,-0.69,-999.0,yes,yes,no,300234068346610,BD2GHI,AOML,UNKNOWN,North
2021-11-24T03:03:01Z,2021,3,3,328.1271,328.1271,64.842,-60.603,996.0,-0.7,-999.0,yes,yes,no,300234068346610,BD2GHI,AOML,UNKNOWN,North
2021-11-24T04:00:02Z,2021,4,0,328.1667,328.1667,64.849,-60.587,997.3,-0.7,-999.0,yes,yes,no,300234068346610,BD2GHI,AOML,UNKNOWN,North
2021-11-24T04:59:57Z,2021,5,0,328.2083,328.2083,64.854,-60.564,998.5,-0.71,-999.0,yes,yes,no,300234068346610,BD2GHI,AOML,UNKNOWN,North
2021-11-24T06:00:00Z,2021,6,0,328.25,328.25,64.857,-60.544,999.5,-0.71,-999.0,yes,yes,no,300234068346610,BD2GHI,AOML,UNKNOWN,North
2021-11-24T07:03:56Z,2021,7,4,328.2944,328.2944,64.856,-60.531,1000.4,-0.71,-999.0,yes,yes,no,300234068346610,BD2GHI,AOML,UNKNOWN,North
2021-11-24T08:03:59Z,2021,8,4,328.3361,328.3361,-90.0,-180.0,1001.9,-0.71,-999.0,yes,yes,no,300234068346610,BD2GHI,AOML,UNKNOWN,North
2021-11-24T09:00:00Z,2021,9,0,328.375,328.375,64.85,-60.532,1002.7,-0.71,-999.0,yes,yes,no,300234068346610,BD2GHI,AOML,UNKNOWN,North
2021-11-24T10:00:02Z,2021,10,0,328.4167,328.4167,64.848,-60.543,1003.6,-0.71,-999.0,yes,yes,no,300234068346610,BD2GHI,AOML,UNKNOWN,North
2021-11-24T12:02:00Z,2021,12,2,328.5014,328.5014,64.85,-60.569,1005.9,-0.72,-999.0,yes,yes,no,300234068346610,BD2GHI,AOML,UNKNOWN,North
2021-11-24T13:00:02Z,2021,13,0,328.5417,328.5417,64.855,-60.573,1007.4,-0.72,-999.0,yes,yes,no,300234068346610,BD2GHI,AOML,UNKNOWN,North
2021-11-24T13:59:57Z,2021,14,0,328.5833,328.5833,64.865,-60.57,1009.8,-0.73,-999.0,yes,yes,no,300234068346610,BD2GHI,AOML,UNKNOWN,North
2021-11-24T15:00:00Z,2021,15,0,328.625,328.625,64.875,-60.559,1011.0,-0.73,-999.0,yes,yes,no,300234068346610,BD2GHI,AOML,UNKNOWN,North
2021-11-24T16:01:03Z,2021,16,1,328.6674,328.6674,64.885,-60.546,1011.9,-0.74,-999.0,yes,yes,no,300234068346610,BD2GHI,AOML,UNKNOWN,North
2021-11-24T17:03:59Z,2021,17,4,328.7111,328.7111,64.894,-60.519,1013.3,-0.73,-999.0,yes,yes,no,300234068346610,BD2GHI,AOML,UNKNOWN,North
2021-11-24T18:02:00Z,2021,18,2,328.7514,328.7514,64.899,-60.495,1014.3,-0.74,-999.0,yes,yes,no,300234068346610,BD2GHI,AOML,UNKNOWN,North
2021-11-24T19:00:02Z,2021,19,0,328.7917,328.7917,64.899,-60.473,1015.3,-0.75,-999.0,yes,yes,no,300234068346610,BD2GHI,AOML,UNKNOWN,North
2021-11-24T19:59:57Z,2021,20,0,328.8333,328.8333,64.896,-60.459,1016.2,-0.75,-999.0,yes,yes,no,300234068346610,BD2GHI,AOML,UNKNOWN,North
2021-11-24T21:00:00Z,2021,21,0,328.875,328.875,64.888,-60.453,1017.1,-0.74,-999.0,yes,yes,no,300234068346610,BD2GHI,AOML,UNKNOWN,North
2021-11-24T22:02:03Z,2021,22,2,328.9181,328.9181,64.877,-60.458,1017.6,-0.75,-999.0,yes,yes,no,300234068346610,BD2GHI,AOML,UNKNOWN,North
2021-11-24T22:59:57Z,2021,23,0,328.9583,328.9583,64.869,-60.47,1018.5,-0.75,-999.0,yes,yes,no,300234068346610,BD2GHI,AOML,UNKNOWN,North
2021-11-25T00:04:01Z,2021,0,4,329.0028,329.0028,64.863,-60.487,1019.0,-0.76,-999.0,yes,yes,no,300234068346610,BD2GHI,AOML,UNKNOWN,North
2021-11-25T01:02:03Z,2021,1,2,329.0431,329.0431,64.862,-60.502,1019.3,-0.76,-999.0,yes,yes,no,300234068346610,BD2GHI,AOML,UNKNOWN,North
2021-11-25T02:00:57Z,2021,2,1,329.084,329.084,64.863,-60.512,1019.5,-0.75,-999.0,yes,yes,no,300234068346610,BD2GHI,AOML,UNKNOWN,North
2021-11-25T03:03:01Z,2021,3,3,329.1271,329.1271,64.867,-60.515,1019.5,-0.76,-999.0,yes,yes,no,300234068346610,BD2GHI,AOML,UNKNOWN,North
2021-11-25T04:00:02Z,2021,4,0,329.1667,329.1667,64.871,-60.511,1019.6,-0.76,-999.0,yes,yes,no,300234068346610,BD2GHI,AOML,UNKNOWN,North
2021-11-25T04:59:57Z,2021,5,0,329.2083,329.2083,64.874,-60.503,1020.3,-0.76,-999.0,yes,yes,no,300234068346610,BD2GHI,AOML,UNKNOWN,North
2021-11-25T06:00:00Z,2021,6,0,329.25,329.25,64.875,-60.498,1020.9,-0.77,-999.0,yes,yes,no,300234068346610,BD2GHI,AOML,UNKNOWN,North
2021-11-25T07:00:02Z,2021,7,0,329.2917,329.2917,64.874,-60.495,1021.4,-0.77,-999.0,yes,yes,no,300234068346610,BD2GHI,AOML,UNKNOWN,North
2021-11-25T07:59:57Z,2021,8,0,329.3333,329.3333,64.872,-60.496,1021.9,-0.77,-999.0,yes,yes,no,300234068346610,BD2GHI,AOML,UNKNOWN,North
2021-11-25T09:04:01Z,2021,9,4,329.3778,329.3778,64.869,-60.503,1022.0,-0.78,-999.0,yes,yes,no,300234068346610,BD2GHI,AOML,UNKNOWN,North
2021-11-25T10:01:03Z,2021,10,1,329.4174,329.4174,64.867,-60.514,1021.8,-0.78,-999.0,yes,yes,no,300234068346610,BD2GHI,AOML,UNKNOWN,North
2021-11-25T12:00:00Z,2021,12,0,329.5,329.5,64.867,-60.549,1021.4,-0.78,-999.0,yes,yes,no,300234068346610,BD2GHI,AOML,UNKNOWN,North
2021-11-25T13:01:03Z,2021,13,1,329.5424,329.5424,64.874,-60.561,1021.7,-0.79,-999.0,yes,yes,no,300234068346610,BD2GHI,AOML,UNKNOWN,North
2021-11-25T14:03:59Z,2021,14,4,329.5861,329.5861,64.884,-60.567,1021.7,-0.79,-999.0,yes,yes,no,300234068346610,BD2GHI,AOML,UNKNOWN,North
2021-11-25T15:00:00Z,2021,15,0,329.625,329.625,64.896,-60.564,1021.7,-0.79,-999.0,yes,yes,no,300234068346610,BD2GHI,AOML,UNKNOWN,North
2021-11-25T18:00:00Z,2021,18,0,329.75,329.75,64.929,-60.511,1020.9,-0.8,-999.0,yes,yes,no,300234068346610,BD2GHI,AOML,UNKNOWN,North
2021-11-25T19:00:02Z,2021,19,0,329.7917,329.7917,64.934,-60.49,1020.7,-0.8,-999.0,yes,yes,no,300234068346610,BD2GHI,AOML,UNKNOWN,North
2021-11-25T19:59:57Z,2021,20,0,329.8333,329.8333,64.935,-60.472,1020.6,-0.8,-999.0,yes,yes,no,300234068346610,BD2GHI,AOML,UNKNOWN,North
2021-11-25T21:01:00Z,2021,21,1,329.8757,329.8757,64.931,-60.46,1020.6,-0.8,-999.0,yes,yes,no,300234068346610,BD2GHI,AOML,UNKNOWN,North
2021-11-25T22:00:02Z,2021,22,0,329.9167,329.9167,64.926,-60.458,1020.3,-0.8,-999.0,yes,yes,no,300234068346610,BD2GHI,AOML,UNKNOWN,North
2021-11-25T22:59:57Z,2021,23,0,329.9583,329.9583,64.919,-60.463,1019.6,-0.81,-999.0,yes,yes,no,300234068346610,BD2GHI,AOML,UNKNOWN,North
2021-11-26T00:00:00Z,2021,0,0,330.0,330.0,64.914,-60.477,1018.7,-0.81,-999.0,yes,yes,no,300234068346610,BD2GHI,AOML,UNKNOWN,North
2021-11-26T01:01:03Z,2021,1,1,330.0424,330.0424,64.911,-60.491,1018.3,-0.82,-999.0,yes,yes,no,300234068346610,BD2GHI,AOML,UNKNOWN,North
2021-11-26T01:59:57Z,2021,2,0,330.0833,330.0833,64.909,-60.5,1017.8,-0.81,-999.0,yes,yes,no,300234068346610,BD2GHI,AOML,UNKNOWN,North
2021-11-26T03:00:00Z,2021,3,0,330.125,330.125,64.909,-60.509,1017.2,-0.81,-999.0,yes,yes,no,300234068346610,BD2GHI,AOML,UNKNOWN,North
2021-11-26T04:00:02Z,2021,4,0,330.1667,330.1667,64.915,-60.518,1016.7,-0.83,-999.0,yes,yes,no,300234068346610,BD2GHI,AOML,UNKNOWN,North
2021-11-26T04:59:57Z,2021,5,0,330.2083,330.2083,64.917,-60.514,1016.3,-0.82,-999.0,yes,yes,no,300234068346610,BD2GHI,AOML,UNKNOWN,North
2021-11-26T06:00:00Z,2021,6,0,330.25,330.25,64.922,-60.503,1016.1,-0.83,-999.0,yes,yes,no,300234068346610,BD2GHI,AOML,UNKNOWN,North
2021-11-26T07:00:02Z,2021,7,0,330.2917,330.2917,64.921,-60.5,1016.0,-0.83,-999.0,yes,yes,no,300234068346610,BD2GHI,AOML,UNKNOWN,North
2021-11-26T07:59:57Z,2021,8,0,330.3333,330.3333,64.922,-60.495,1015.9,-0.84,-999.0,yes,yes,no,300234068346610,BD2GHI,AOML,UNKNOWN,North
2021-11-26T09:00:00Z,2021,9,0,330.375,330.375,64.918,-60.498,1016.3,-0.83,-999.0,yes,yes,no,300234068346610,BD2GHI,AOML,UNKNOWN,North
2021-11-26T10:00:02Z,2021,10,0,330.4167,330.4167,64.915,-60.508,1016.3,-0.84,-999.0,yes,yes,no,300234068346610,BD2GHI,AOML,UNKNOWN,North
2021-11-26T12:00:00Z,2021,12,0,330.5,330.5,64.917,-60.537,1016.3,-0.84,-999.0,yes,yes,no,300234068346610,BD2GHI,AOML,UNKNOWN,North
2021-11-26T13:00:02Z,2021,13,0,330.5417,330.5417,64.921,-60.548,1016.3,-0.86,-999.0,yes,yes,no,300234068346610,BD2GHI,AOML,UNKNOWN,North
2021-11-26T13:59:57Z,2021,14,0,330.5833,330.5833,64.927,-60.556,1016.6,-0.84,-999.0,yes,yes,no,300234068346610,BD2GHI,AOML,UNKNOWN,North
2021-11-26T15:00:00Z,2021,15,0,330.625,330.625,64.936,-60.56,1016.6,-0.85,-999.0,yes,yes,no,300234068346610,BD2GHI,AOML,UNKNOWN,North
2021-11-26T16:00:02Z,2021,16,0,330.6667,330.6667,64.947,-60.557,1016.2,-0.84,-999.0,yes,yes,no,300234068346610,BD2GHI,AOML,UNKNOWN,North
2021-11-26T16:59:57Z,2021,17,0,330.7083,330.7083,64.96,-60.544,1016.0,-0.85,-999.0,yes,yes,no,300234068346610,BD2GHI,AOML,UNKNOWN,North
2021-11-26T18:00:00Z,2021,18,0,330.75,330.75,64.97,-60.524,1016.1,-0.86,-999.0,yes,yes,no,300234068346610,BD2GHI,AOML,UNKNOWN,North
2021-11-26T19:00:02Z,2021,19,0,330.7917,330.7917,64.978,-60.502,1016.5,-0.86,-999.0,yes,yes,no,300234068346610,BD2GHI,AOML,UNKNOWN,North
2021-11-26T19:59:57Z,2021,20,0,330.8333,330.8333,64.981,-60.482,1016.4,-0.86,-999.0,yes,yes,no,300234068346610,BD2GHI,AOML,UNKNOWN,North
2021-11-26T21:01:00Z,2021,21,1,330.8757,330.8757,64.98,-60.468,1016.4,-0.86,-999.0,yes,yes,no,300234068346610,BD2GHI,AOML,UNKNOWN,North
2021-11-26T22:00:02Z,2021,22,0,330.9167,330.9167,64.977,-60.459,1016.3,-0.86,-999.0,yes,yes,no,300234068346610,BD2GHI,AOML,UNKNOWN,North
2021-11-26T22:59:57Z,2021,23,0,330.9583,330.9583,64.972,-60.455,1015.9,-0.87,-999.0,yes,yes,no,300234068346610,BD2GHI,AOML,UNKNOWN,North
2021-11-27T00:00:00Z,2021,0,0,331.0,331.0,64.963,-60.455,1015.1,-0.87,-999.0,yes,yes,no,300234068346610,BD2GHI,AOML,UNKNOWN,North
2021-11-27T01:00:02Z,2021,1,0,331.0417,331.0417,64.955,-60.465,1014.5,-0.86,-999.0,yes,yes,no,300234068346610,BD2GHI,AOML,UNKNOWN,North
2021-11-27T01:59:57Z,2021,2,0,331.0833,331.0833,64.95,-60.476,1014.4,-0.86,-999.0,yes,yes,no,300234068346610,BD2GHI,AOML,UNKNOWN,North
2021-11-27T03:00:00Z,2021,3,0,331.125,331.125,64.949,-60.489,1013.6,-0.87,-999.0,yes,yes,no,300234068346610,BD2GHI,AOML,UNKNOWN,North
2021-11-27T04:01:03Z,2021,4,1,331.1674,331.1674,64.956,-60.511,1013.3,-0.86,-999.0,yes,yes,no,300234068346610,BD2GHI,AOML,UNKNOWN,North
2021-11-27T05:01:58Z,2021,5,2,331.2097,331.2097,64.953,-60.513,1012.8,-0.86,-999.0,yes,yes,no,300234068346610,BD2GHI,AOML,UNKNOWN,North
2021-11-27T06:00:00Z,2021,6,0,331.25,331.25,64.954,-60.513,1012.6,-0.86,-999.0,yes,yes,no,300234068346610,BD2GHI,AOML,UNKNOWN,North
2021-11-27T07:00:02Z,2021,7,0,331.2917,331.2917,64.956,-60.519,1012.4,-0.86,-999.0,yes,yes,no,300234068346610,BD2GHI,AOML,UNKNOWN,North
2021-11-27T07:59:57Z,2021,8,0,331.3333,331.3333,64.958,-60.522,1011.5,-0.87,-999.0,yes,yes,no,300234068346610,BD2GHI,AOML,UNKNOWN,North
2021-11-27T09:00:00Z,2021,9,0,331.375,331.375,64.958,-60.528,1011.3,-0.87,-999.0,yes,yes,no,300234068346610,BD2GHI,AOML,UNKNOWN,North
2021-11-27T10:02:03Z,2021,10,2,331.4181,331.4181,64.956,-60.538,1010.7,-0.87,-999.0,yes,yes,no,300234068346610,BD2GHI,AOML,UNKNOWN,North
2021-11-27T13:00:02Z,2021,13,0,331.5417,331.5417,64.956,-60.61,1010.0,-0.88,-999.0,yes,yes,no,300234068346610,BD2GHI,AOML,UNKNOWN,North
2021-11-27T14:03:59Z,2021,14,4,331.5861,331.5861,64.962,-60.638,1009.5,-0.89,-999.0,yes,yes,no,300234068346610,BD2GHI,AOML,UNKNOWN,North
2021-11-27T15:00:00Z,2021,15,0,331.625,331.625,64.966,-60.657,1008.7,-0.89,-999.0,yes,yes,no,300234068346610,BD2GHI,AOML,UNKNOWN,North
2021-11-27T16:03:56Z,2021,16,4,331.6694,331.6694,64.974,-60.67,1007.8,-0.9,-999.0,yes,yes,no,300234068346610,BD2GHI,AOML,UNKNOWN,North
2021-11-27T17:03:59Z,2021,17,4,331.7111,331.7111,64.978,-60.682,1007.6,-0.9,-999.0,yes,yes,no,300234068346610,BD2GHI,AOML,UNKNOWN,North
2021-11-27T19:01:03Z,2021,19,1,331.7924,331.7924,64.989,-60.69,1006.3,-0.91,-999.0,yes,yes,no,300234068346610,BD2GHI,AOML,UNKNOWN,North
2021-11-27T20:03:59Z,2021,20,4,331.8361,331.8361,64.992,-60.69,1006.0,-0.92,-999.0,yes,yes,no,300234068346610,BD2GHI,AOML,UNKNOWN,North
2021-11-27T21:04:01Z,2021,21,4,331.8778,331.8778,64.991,-60.696,1006.3,-0.93,-999.0,yes,yes,no,300234068346610,BD2GHI,AOML,UNKNOWN,North
2021-11-27T22:00:02Z,2021,22,0,331.9167,331.9167,64.987,-60.699,1005.2,-0.93,-999.0,yes,yes,no,300234068346610,BD2GHI,AOML,UNKNOWN,North
2021-11-27T22:59:57Z,2021,23,0,331.9583,331.9583,64.982,-60.705,1005.0,-0.93,-999.0,yes,yes,no,300234068346610,BD2GHI,AOML,UNKNOWN,North
2021-11-28T00:04:01Z,2021,0,4,332.0028,332.0028,64.972,-60.72,1004.4,-0.92,-999.0,yes,yes,no,300234068346610,BD2GHI,AOML,UNKNOWN,North
2021-11-28T01:00:02Z,2021,1,0,332.0417,332.0417,64.962,-60.74,1004.1,-0.92,-999.0,yes,yes,no,300234068346610,BD2GHI,AOML,UNKNOWN,North
2021-11-28T01:59:57Z,2021,2,0,332.0833,332.0833,64.953,-60.765,1003.6,-0.92,-999.0,yes,yes,no,300234068346610,BD2GHI,AOML,UNKNOWN,North
2021-11-28T03:00:00Z,2021,3,0,332.125,332.125,64.945,-60.793,1003.4,-0.92,-999.0,yes,yes,no,300234068346610,BD2GHI,AOML,UNKNOWN,North
2021-11-28T04:03:04Z,2021,4,3,332.1688,332.1688,64.939,-60.821,1003.3,-0.91,-999.0,yes,yes,no,300234068346610,BD2GHI,AOML,UNKNOWN,North
2021-11-28T05:03:59Z,2021,5,4,332.2111,332.2111,64.936,-60.849,1003.2,-0.91,-999.0,yes,yes,no,300234068346610,BD2GHI,AOML,UNKNOWN,North
2021-11-28T06:04:01Z,2021,6,4,332.2528,332.2528,64.937,-60.868,1003.3,-0.9,-999.0,yes,yes,no,300234068346610,BD2GHI,AOML,UNKNOWN,North
2021-11-28T07:00:02Z,2021,7,0,332.2917,332.2917,64.941,-60.883,1002.7,-0.9,-999.0,yes,yes,no,300234068346610,BD2GHI,AOML,UNKNOWN,North
2021-11-28T07:59:57Z,2021,8,0,332.3333,332.3333,64.942,-60.892,1001.9,-0.89,-999.0,yes,yes,no,300234068346610,BD2GHI,AOML,UNKNOWN,North
2021-11-28T09:04:01Z,2021,9,4,332.3778,332.3778,64.942,-60.9,1002.6,-0.87,-999.0,yes,yes,no,300234068346610,BD2GHI,AOML,UNKNOWN,North
2021-11-28T10:03:56Z,2021,10,4,332.4194,332.4194,-90.0,-180.0,1002.5,-0.86,-999.0,yes,yes,no,300234068346610,BD2GHI,AOML,UNKNOWN,North
2021-11-28T11:03:59Z,2021,11,4,332.4611,332.4611,-90.0,-180.0,1001.9,-0.87,-999.0,yes,yes,no,300234068346610,BD2GHI,AOML,UNKNOWN,North
2021-11-28T12:04:01Z,2021,12,4,332.5028,332.5028,-90.0,-180.0,1001.9,-0.85,-999.0,yes,yes,no,300234068346610,BD2GHI,AOML,UNKNOWN,North
2021-11-28T13:03:56Z,2021,13,4,332.5444,332.5444,64.938,-60.962,1001.2,-0.85,-999.0,yes,yes,no,300234068346610,BD2GHI,AOML,UNKNOWN,North
2021-11-28T14:03:59Z,2021,14,4,332.5861,332.5861,64.944,-60.994,1000.5,-0.84,-999.0,yes,yes,no,300234068346610,BD2GHI,AOML,UNKNOWN,North
2021-11-28T15:01:00Z,2021,15,1,332.6257,332.6257,64.936,-60.996,999.9,-0.84,-999.0,yes,yes,no,300234068346610,BD2GHI,AOML,UNKNOWN,North
2021-11-28T16:03:04Z,2021,16,3,332.6688,332.6688,64.935,-61.014,999.0,-0.85,-999.0,yes,yes,no,300234068346610,BD2GHI,AOML,UNKNOWN,North
2021-11-28T16:59:57Z,2021,17,0,332.7083,332.7083,64.936,-61.029,996.9,-0.84,-999.0,yes,yes,no,300234068346610,BD2GHI,AOML,UNKNOWN,North
2021-11-28T18:04:01Z,2021,18,4,332.7528,332.7528,-90.0,-180.0,995.7,-0.84,-999.0,yes,yes,no,300234068346610,BD2GHI,AOML,UNKNOWN,North
2021-11-28T19:03:56Z,2021,19,4,332.7944,332.7944,-90.0,-180.0,994.6,-0.85,-999.0,yes,yes,no,300234068346610,BD2GHI,AOML,UNKNOWN,North
2021-11-28T20:03:59Z,2021,20,4,332.8361,332.8361,-90.0,-180.0,993.2,-0.86,-999.0,yes,yes,no,300234068346610,BD2GHI,AOML,UNKNOWN,North
2021-11-28T21:04:01Z,2021,21,4,332.8778,332.8778,-90.0,-180.0,992.4,-0.85,-999.0,yes,yes,no,300234068346610,BD2GHI,AOML,UNKNOWN,North
2021-11-28T22:03:56Z,2021,22,4,332.9194,332.9194,-90.0,-180.0,990.8,-0.85,-999.0,yes,yes,no,300234068346610,BD2GHI,AOML,UNKNOWN,North
2021-11-28T23:03:59Z,2021,23,4,332.9611,332.9611,-90.0,-180.0,989.9,-0.86,-999.0,yes,yes,no,300234068346610,BD2GHI,AOML,UNKNOWN,North
2021-11-29T00:04:01Z,2021,0,4,333.0028,333.0028,-90.0,-180.0,989.0,-0.86,-999.0,yes,yes,no,300234068346610,BD2GHI,AOML,UNKNOWN,North
2021-11-29T01:03:56Z,2021,1,4,333.0444,333.0444,-90.0,-180.0,988.7,-0.86,-999.0,yes,yes,no,300234068346610,BD2GHI,AOML,UNKNOWN,North
2021-11-29T02:03:59Z,2021,2,4,333.0861,333.0861,-90.0,-180.0,988.3,-0.87,-999.0,yes,yes,no,300234068346610,BD2GHI,AOML,UNKNOWN,North
2021-11-29T03:04:01Z,2021,3,4,333.1278,333.1278,-90.0,-180.0,988.7,-0.87,-999.0,yes,yes,no,300234068346610,BD2GHI,AOML,UNKNOWN,North
2021-11-29T04:03:56Z,2021,4,4,333.1694,333.1694,-90.0,-180.0,988.9,-0.88,-999.0,yes,yes,no,300234068346610,BD2GHI,AOML,UNKNOWN,North
2021-11-29T05:03:59Z,2021,5,4,333.2111,333.2111,-90.0,-180.0,988.6,-0.88,-999.0,yes,yes,no,300234068346610,BD2GHI,AOML,UNKNOWN,North
2021-11-29T06:04:01Z,2021,6,4,333.2528,333.2528,-90.0,-180.0,988.4,-0.88,-999.0,yes,yes,no,300234068346610,BD2GHI,AOML,UNKNOWN,North
2021-11-29T07:03:04Z,2021,7,3,333.2938,333.2938,64.9,-61.281,988.6,-0.88,-999.0,yes,yes,no,300234068346610,BD2GHI,AOML,UNKNOWN,North
2021-11-29T07:59:57Z,2021,8,0,333.3333,333.3333,64.902,-61.296,988.6,-0.88,-999.0,yes,yes,no,300234068346610,BD2GHI,AOML,UNKNOWN,North
2021-11-29T09:04:01Z,2021,9,4,333.3778,333.3778,64.904,-61.309,989.0,-0.89,-999.0,yes,yes,no,300234068346610,BD2GHI,AOML,UNKNOWN,North
2021-11-29T10:03:04Z,2021,10,3,333.4188,333.4188,64.905,-61.315,989.1,-0.89,-999.0,yes,yes,no,300234068346610,BD2GHI,AOML,UNKNOWN,North
2021-11-29T12:00:00Z,2021,12,0,333.5,333.5,64.904,-61.34,989.7,-0.9,-999.0,yes,yes,no,300234068346610,BD2GHI,AOML,UNKNOWN,North
2021-11-29T13:03:56Z,2021,13,4,333.5444,333.5444,64.904,-61.359,989.7,-0.9,-999.0,yes,yes,no,300234068346610,BD2GHI,AOML,UNKNOWN,North
2021-11-29T14:03:59Z,2021,14,4,333.5861,333.5861,-90.0,-180.0,989.8,-0.91,-999.0,yes,yes,no,300234068346610,BD2GHI,AOML,UNKNOWN,North
2021-11-29T15:04:01Z,2021,15,4,333.6278,333.6278,-90.0,-180.0,990.0,-0.9,-999.0,yes,yes,no,300234068346610,BD2GHI,AOML,UNKNOWN,North
2021-11-29T16:03:56Z,2021,16,4,333.6694,333.6694,-90.0,-180.0,990.0,-0.9,-999.0,yes,yes,no,300234068346610,BD2GHI,AOML,UNKNOWN,North
2021-11-29T17:03:59Z,2021,17,4,333.7111,333.7111,-90.0,-180.0,990.4,-0.91,-999.0,yes,yes,no,300234068346610,BD2GHI,AOML,UNKNOWN,North
2021-11-29T18:04:01Z,2021,18,4,333.7528,333.7528,64.886,-61.481,990.4,-0.91,-999.0,yes,yes,no,300234068346610,BD2GHI,AOML,UNKNOWN,North
2021-11-29T19:03:56Z,2021,19,4,333.7944,333.7944,64.887,-61.503,990.9,-0.92,-999.0,yes,yes,no,300234068346610,BD2GHI,AOML,UNKNOWN,North
2021-11-29T19:59:57Z,2021,20,0,333.8333,333.8333,64.891,-61.525,991.5,-0.92,-999.0,yes,yes,no,300234068346610,BD2GHI,AOML,UNKNOWN,North
2021-11-29T21:04:01Z,2021,21,4,333.8778,333.8778,-90.0,-180.0,991.6,-0.92,-999.0,yes,yes,no,300234068346610,BD2GHI,AOML,UNKNOWN,North
2021-11-29T22:03:56Z,2021,22,4,333.9194,333.9194,-90.0,-180.0,992.4,-0.92,-999.0,yes,yes,no,300234068346610,BD2GHI,AOML,UNKNOWN,North
2021-11-29T23:03:59Z,2021,23,4,333.9611,333.9611,-90.0,-180.0,993.2,-0.93,-999.0,yes,yes,no,300234068346610,BD2GHI,AOML,UNKNOWN,North
2021-11-30T00:04:01Z,2021,0,4,334.0028,334.0028,-90.0,-180.0,993.3,-0.93,-999.0,yes,yes,no,300234068346610,BD2GHI,AOML,UNKNOWN,North
2021-11-30T02:03:59Z,2021,2,4,334.0861,334.0861,-90.0,-180.0,994.6,-0.93,-999.0,yes,yes,no,300234068346610,BD2GHI,AOML,UNKNOWN,North
2021-11-30T03:04:01Z,2021,3,4,334.1278,334.1278,-90.0,-180.0,995.1,-0.94,-999.0,yes,yes,no,300234068346610,BD2GHI,AOML,UNKNOWN,North
2021-11-30T04:03:56Z,2021,4,4,334.1694,334.1694,-90.0,-180.0,995.6,-0.93,-999.0,yes,yes,no,300234068346610,BD2GHI,AOML,UNKNOWN,North
2021-11-30T05:03:59Z,2021,5,4,334.2111,334.2111,-90.0,-180.0,996.5,-0.93,-999.0,yes,yes,no,300234068346610,BD2GHI,AOML,UNKNOWN,North
2021-11-30T06:04:01Z,2021,6,4,334.2528,334.2528,-90.0,-180.0,997.3,-0.94,-999.0,yes,yes,no,300234068346610,BD2GHI,AOML,UNKNOWN,North
2021-11-30T07:03:56Z,2021,7,4,334.2944,334.2944,64.839,-61.741,998.2,-0.93,-999.0,yes,yes,no,300234068346610,BD2GHI,AOML,UNKNOWN,North
2021-11-30T07:59:57Z,2021,8,0,334.3333,334.3333,64.844,-61.754,999.0,-0.94,-999.0,yes,yes,no,300234068346610,BD2GHI,AOML,UNKNOWN,North
2021-11-30T09:00:00Z,2021,9,0,334.375,334.375,64.85,-61.757,1000.0,-0.95,-999.0,yes,yes,no,300234068346610,BD2GHI,AOML,UNKNOWN,North
2021-11-30T10:00:02Z,2021,10,0,334.4167,334.4167,64.856,-61.751,1000.8,-0.96,-999.0,yes,yes,no,300234068346610,BD2GHI,AOML,UNKNOWN,North
2021-11-30T12:01:00Z,2021,12,1,334.5007,334.5007,64.861,-61.737,1002.2,-0.95,-999.0,yes,yes,no,300234068346610,BD2GHI,AOML,UNKNOWN,North
2021-11-30T13:03:04Z,2021,13,3,334.5438,334.5438,64.858,-61.739,1002.5,-0.96,-999.0,yes,yes,no,300234068346610,BD2GHI,AOML,UNKNOWN,North
2021-11-30T13:59:57Z,2021,14,0,334.5833,334.5833,64.852,-61.751,1003.1,-0.99,-999.0,yes,yes,no,300234068346610,BD2GHI,AOML,UNKNOWN,North
2021-11-30T15:00:00Z,2021,15,0,334.625,334.625,64.846,-61.774,1003.0,-0.96,-999.0,yes,yes,no,300234068346610,BD2GHI,AOML,UNKNOWN,North
2021-11-30T16:00:02Z,2021,16,0,334.6667,334.6667,64.841,-61.804,1002.9,-0.99,-999.0,yes,yes,no,300234068346610,BD2GHI,AOML,UNKNOWN,North
2021-11-30T16:59:57Z,2021,17,0,334.7083,334.7083,64.838,-61.835,1003.3,-0.97,-999.0,yes,yes,no,300234068346610,BD2GHI,AOML,UNKNOWN,North
2021-11-30T18:00:00Z,2021,18,0,334.75,334.75,64.839,-61.86,1003.4,-0.98,-999.0,yes,yes,no,300234068346610,BD2GHI,AOML,UNKNOWN,North
2021-11-30T19:00:02Z,2021,19,0,334.7917,334.7917,64.843,-61.877,1003.2,-1.03,-999.0,yes,yes,no,300234068346610,BD2GHI,AOML,UNKNOWN,North
2021-11-30T19:59:57Z,2021,20,0,334.8333,334.8333,64.848,-61.879,1003.5,-1.05,-999.0,yes,yes,no,300234068346610,BD2GHI,AOML,UNKNOWN,North
2021-11-30T21:03:01Z,2021,21,3,334.8771,334.8771,64.853,-61.875,1003.6,-1.06,-999.0,yes,yes,no,300234068346610,BD2GHI,AOML,UNKNOWN,North
2021-11-30T22:00:02Z,2021,22,0,334.9167,334.9167,64.856,-61.864,1003.1,-1.06,-999.0,yes,yes,no,300234068346610,BD2GHI,AOML,UNKNOWN,North
2021-11-30T22:59:57Z,2021,23,0,334.9583,334.9583,64.856,-61.852,1002.7,-1.07,-999.0,yes,yes,no,300234068346610,BD2GHI,AOML,UNKNOWN,North
2021-12-01T00:04:01Z,2021,0,4,335.0028,335.0028,64.851,-61.848,1001.7,-1.09,-999.0,yes,yes,no,300234068346610,BD2GHI,AOML,UNKNOWN,North
2021-12-01T01:02:03Z,2021,1,2,335.0431,335.0431,64.843,-61.851,1000.6,-1.09,-999.0,yes,yes,no,300234068346610,BD2GHI,AOML,UNKNOWN,North
2021-12-01T01:59:57Z,2021,2,0,335.0833,335.0833,64.834,-61.868,999.0,-1.11,-999.0,yes,yes,no,300234068346610,BD2GHI,AOML,UNKNOWN,North
2021-12-01T03:00:00Z,2021,3,0,335.125,335.125,64.823,-61.898,997.2,-1.14,-999.0,yes,yes,no,300234068346610,BD2GHI,AOML,UNKNOWN,North
2021-12-01T04:01:03Z,2021,4,1,335.1674,335.1674,64.812,-61.936,995.6,-1.15,-999.0,yes,yes,no,300234068346610,BD2GHI,AOML,UNKNOWN,North
2021-12-01T04:59:57Z,2021,5,0,335.2083,335.2083,64.803,-61.977,993.1,-1.2,-999.0,yes,yes,no,300234068346610,BD2GHI,AOML,UNKNOWN,North
2021-12-01T06:00:00Z,2021,6,0,335.25,335.25,64.796,-62.015,991.3,-1.17,-999.0,yes,yes,no,300234068346610,BD2GHI,AOML,UNKNOWN,North
2021-12-01T07:00:02Z,2021,7,0,335.2917,335.2917,64.793,-62.047,989.9,-1.16,-999.0,yes,yes,no,300234068346610,BD2GHI,AOML,UNKNOWN,North
2021-12-01T07:59:57Z,2021,8,0,335.3333,335.3333,64.792,-62.067,988.3,-1.14,-999.0,yes,yes,no,300234068346610,BD2GHI,AOML,UNKNOWN,North
2021-12-01T09:00:00Z,2021,9,0,335.375,335.375,64.794,-62.077,986.8,-1.17,-999.0,yes,yes,no,300234068346610,BD2GHI,AOML,UNKNOWN,North
2021-12-01T10:00:02Z,2021,10,0,335.4167,335.4167,64.796,-62.077,985.5,-1.13,-999.0,yes,yes,no,300234068346610,BD2GHI,AOML,UNKNOWN,North